Погода в Александровке

Россия / Новосибирская область     54°26′17″N   84°21′57″E
темп.,
°C
ветер,
м/с
пор.,
м/с
влажн.,
%
обл.,
%
осадки,
мм/ч
давл.,
гПа
погр.,
м
16 апреля, пт
пт1601:00+2ю3999100 0.1 1022251
04:00+2ю310100100 0.1 1019262
07:00+2ююз39100100 0.1 1019267
10:00+3ююз310100100 0.0 1017261
13:00+4юз412100100 0.0 1016432
16:00+6юз513100100 0.0 1014479
19:00+6зюз41198100 0.0 1014470
22:00+4зсз31099100 0.1 1014357
17 апреля, сб
сб1701:00+1ссв51091100 0.1 1017504
04:000ссв51187100 0.1 1019691
07:00−1ссв5784100 0.1 1021832
10:00−1ссв457786 0.0 1023791
13:00+1с3364100 0.1 10231113
16:00+2ссз335777 0.0 10231358
19:000ссз336227 0.0 10231061
22:00−2всв11825 0.0 102331
18 апреля, вс
вс1801:00−3ю128167 0.0 102374
04:00−2ю2579100 0.0 1020282
07:00−2ююз3977100 0.0 1019460
10:00+1юз5972100 0.0 1017900
13:00+4юз6961100 0.0 10141290
16:00+5юз6959100 0.0 10121567
19:00+1ююз2699100 2.4 1009193
22:000ююз2799100 4.6 1007286
19 апреля, пн
пн1901:000з51099100 6.8 1005644
04:00−5с61289100 0.8 1010710
07:00−7ссз61086100 0.9 1016809
10:00−6ссз6867100 0.0 10211185
13:00−4сз5655100 0.1 10241718
16:00−3сз5653100 0.1 10251868
19:00−4сз4558100 0.1 10271484
22:00−6ссз376875 0.1 1029604
20 апреля, вт
вт2001:00−7ссз257377 0.1 1030530
04:00−7сз257597 0.1 1030476
07:00−7сз24735 0.1 1031656
10:00−6сз3456100 0.0 10311400
13:00−3зсз3450100 0.1 10301761
16:00−2зсз3445100 0.1 10291703
19:00−2з344858 0.1 10281525
22:00−5юз24675 0.0 102969